Regional Weather Roundup
Issued by NWS

Home | Current Version | Previous Version | Graphics & Text | Print | Product List | Glossary On
Versions: 1 2 3 4 5 6 7 8 9 10 11 12 13 14 15 16 17 18 19 20 21 22 23 24 25 26 27 28 29 30 31 32 33 34 35 36 37 38 39 40 41 42 43 44 45 46 47 48 49 50
540
ASUS44 KLIX 291111
RWRLA
LOUISIANA WEATHER ROUNDUP
NATIONAL WEATHER SERVICE NEW ORLEANS LA
600 AM CDT SUN MAR 29 2015

NOTE: "FAIR" INDICATES FEW OR NO CLOUDS BELOW 12,000 FEET WITH NO
      SIGNIFICANT WEATHER AND/OR OBSTRUCTIONS TO VISIBILITY.
      SKY/WX - SKY CONDITION AND SIGNIFICANT WEATHER.
      TMP - AIR TEMPERATURE.    DP   - DEWPOINT TEMPERATURE.
      RH  - RELATIVE HUMIDITY.  PRES - PRESSURE.
      HX  - HEAT INDEX.         WCI  - WIND CHILL INDEX.

*  THESE STATIONS ARE NOT NWS OR FAA STATIONS AND ARE NOT UNDER
   NWS QUALITY CONTROL.

LAZ040-048-061>063-065-066-069-291200-
SOUTHEAST LOUISIANA

CITY           SKY/WX    TMP DP  RH WIND       PRES   REMARKS
N.O. AUDUBON     N/A     58  56  93 MISG        N/A
N.O. INTL ARPT PTCLDY    58  51  78 E5        30.24R
N.O. LAKEFRONT CLEAR     58  52  80 E15       30.25R
SLIDELL        CLEAR     46  37  71 E5        30.26R
BATON ROUGE    CLEAR     50  48  93 E7        30.23R
BOOTHVILLE     CLEAR     57  54  89 E7        30.25R
BELLE CHASSE   PTCLDY    55  51  86 E6        30.23R
BOGALUSA*        N/A     46  35  65 CALM      30.29R
GALLIANO*      CLOUDY    63  60  90 E3        30.23R
NEW ROADS*     FAIR      53  51  94 E6        30.22R
GONZALES*      FAIR      53  53 100 CALM      30.23R
HAMMOND*       PTCLDY    48  37  66 E6        30.28R
HOUMA*         MOCLDY    56  56  98 E6        30.22R FOG
PORT FOURCHON* SUNNY     66  61  82 E7        30.26R

$$

LAZ041-044-053-054-291200-
SOUTHWEST LOUISIANA

CITY           SKY/WX    TMP DP  RH WIND       PRES   REMARKS
LAKE CHARLES   CLEAR     57  56  96 SE6       30.16R
LAFAYETTE      CLEAR     55  54  96 CALM      30.20R FOG
PATTERSON      CLEAR     55  54  94 E3        30.20R
SALT POINT       N/A     58  57  97 E3        30.19R
NEW IBERIA     CLEAR     54  52  93 SE6       30.20R FOG
CHENAULT AIRPK CLEAR     57  55  94 SE7         N/A

$$

LAZ027-028-291200-
CENTRAL LOUISIANA

CITY           SKY/WX    TMP DP  RH WIND       PRES   REMARKS
FORT POLK      CLOUDY    57  56  98 SE6       30.16R FOG
ALEXANDRIA INT CLOUDY    58  57  97 SE7       30.17R FOG
ALEXANDRIA     CLOUDY    55  53  93 E3        30.19R

$$

LAZ001-002-291200-
NORTHWEST LOUISIANA

CITY           SKY/WX    TMP DP  RH WIND       PRES   REMARKS
SHREVEPORT     MOCLDY    50  41  71 SE5       30.13R
BARKSDALE AFB  PTCLDY    45  38  76 SE3       30.13S
DTN SHREVEPORT CLEAR     46  38  73 E7        30.14R

$$

LAZ014-016-291200-
NORTHEAST LOUISIANA

CITY           SKY/WX    TMP DP  RH WIND       PRES   REMARKS
MONROE         CLOUDY    50  39  66 SE7       30.20S
TALLULAH       MOCLDY    46  35  65 SE9       30.24R

$$




USA.gov is the U.S. government's official web portal to all federal, state and local government web resources and services.